Wind_Speed
27 30 35 36 35 32 33 34 37 42 45 51 52 47 47 46 48 45 46 45 44 42
10 18 32 41 31 37 40 38 42 42 44 47 50 47 44 44 44 43 44 44 43 42
27 21 12 15 21 21 31 34 41 40 44 46 47 51 49 43 42 43 42 40 39 40
23 22 21 20 16 11 7 11 20 30 35 39 44 45 44 44 43 43 42 43 41 41
21 17 15 15 15 13 9 6 6 5 26 35 40 39 41 40 37 40 42 43 41 42
18 17 14 10 9 9 9 9 9 10 9 14 25 30 45 47 42 42 44 45 45 41
15 12 13 10 5 4 6 8 8 6 10 9 6 21 29 35 37 40 43 46 45 46
12 9 10 8 6 4 4 6 8 11 9 8 7 8 8 30 37 38 42 44 43 45
12 7 9 11 10 7 5 3 2 5 8 9 8 9 15 14 13 29 37 32 36 35
12 12 10 12 12 12 10 8 9 8 10 12 11 11 12 14 14 16 26 34 37 36
17 15 16 16 14 14 14 13 11 12 13 14 16 14 14 15 15 17 18 22 30 31
21 19 19 19 20 17 14 12 16 15 16 18 20 16 15 13 14 16 19 19 22 33
28 28 25 25 24 22 17 15 15 17 19 19 22 21 18 12 13 16 17 19 21 26
25 23 24 30 29 24 21 19 17 17 20 22 22 21 18 17 16 17 17 16 19 20
Wind_Direction
212 215 201 197 205 208 209 209 207 204 202 203 204 202 200 199 201 202 204 205 203 207
118 202 194 204 209 202 212 219 213 209 204 204 205 202 200 203 206 206 208 211 210 209
70 78 129 183 206 208 215 214 215 213 208 205 208 209 203 204 207 208 211 214 217 218
70 70 71 74 66 79 155 217 225 222 223 213 207 205 202 204 204 206 212 214 215 217
74 70 61 60 53 39 27 32 42 317 238 223 210 204 201 203 203 206 208 213 216 219
55 64 61 65 57 53 25 27 10 337 312 251 235 208 207 208 204 207 211 212 212 213
39 40 50 48 51 66 44 34 43 1 323 317 281 223 230 213 214 213 215 215 214 215
10 18 35 16 360 20 6 352 12 3 330 325 284 275 269 235 210 219 222 221 218 219
353 16 358 1 352 343 333 323 311 306 328 345 330 310 287 295 278 220 227 226 224 223
322 332 330 333 335 326 317 311 311 324 332 327 327 319 291 282 280 256 241 222 221 219
301 304 307 307 310 313 321 314 313 321 320 314 309 314 313 295 278 273 268 251 230 216
287 280 281 287 290 291 292 300 304 316 316 313 309 310 308 302 287 272 261 264 251 238
321 299 278 275 275 277 272 271 278 299 308 307 306 309 304 291 275 268 255 249 250 245
320 328 320 292 268 267 257 253 263 283 298 304 299 299 297 292 280 277 276 260 250 249
Height
667 672 681 681 697 698 709 714 718 722 723 728 735 742 747 752 757 763 767 770 772 776
663 667 674 685 695 695 698 705 710 715 717 720 725 732 737 744 750 756 759 764 766 768
670 672 676 683 689 693 697 694 699 708 710 713 717 722 728 736 742 748 753 759 764 768
676 679 680 684 689 691 694 697 698 699 705 706 709 713 720 724 731 738 747 752 755 759
681 682 685 687 691 694 696 694 694 699 698 700 702 705 710 718 724 729 734 741 747 750
685 685 689 691 693 694 698 695 695 698 700 694 679 692 695 704 710 717 724 728 733 739
688 689 688 692 695 694 695 695 694 702 698 694 692 693 695 696 704 709 712 715 718 724
693 692 691 693 696 694 693 694 691 691 697 697 695 693 693 697 695 702 705 707 709 713
695 692 691 691 692 693 694 693 694 698 698 690 690 688 692 691 685 690 694 704 701 702
694 690 688 689 690 691 692 692 691 689 686 687 687 688 689 689 690 691 692 692 700 701
689 686 686 687 685 687 685 687 687 686 688 685 685 684 685 684 680 683 685 688 686 685
683 685 682 683 684 683 680 680 684 682 684 682 683 683 682 680 680 677 677 679 679 686
680 678 677 677 679 680 675 676 678 676 678 678 676 675 678 679 679 680 678 676 677 677
683 680 679 678 674 672 670 672 670 668 669 672 674 670 673 672 669 669 670 668 669 670